Location: Arbon
(43.0005°N, 0.7472°E)
Time: 17:45:12
(UTC+00:00)

S-56A Canister/Altair - Visible Passes

Search period start: 04 December 2020 00:00
Search period end: 14 December 2020 00:00
Orbit: 632 x 2500 km, 38.9° (Epoch: 03 December)

Date Brightness Start Highest point End Pass type
(mag) Time Alt. Az. Time Alt. Az. Time Alt. Az.
04 Dec 10.4 16:29:20 10° SSW 16:42:20 41° SSE 16:52:20 10° E visible
04 Dec 9.3 18:34:29 10° WSW 18:47:37 65° SSE 18:51:22 42° ESE visible
04 Dec 9.9 20:41:28 10° W 20:48:48 41° WSW 20:48:48 41° WSW visible
05 Dec 9.6 18:00:47 10° WSW 18:14:24 64° SSE 18:20:27 28° E visible
05 Dec 9.3 20:07:43 10° W 20:17:52 60° SW 20:17:52 60° SW visible
05 Dec 11.2 22:14:52 10° W 22:15:18 11° W 22:15:18 11° W visible
06 Dec 9.8 17:27:07 10° WSW 17:41:08 62° SSE 17:49:31 18° E visible
06 Dec 9.0 19:33:56 10° W 19:46:34 71° S 19:46:56 70° S visible
06 Dec 10.8 21:41:11 10° W 21:44:22 20° W 21:44:22 20° W visible
07 Dec 10.0 16:53:30 10° SW 17:07:48 60° SSE 17:18:29 10° E visible
07 Dec 9.1 19:00:08 10° W 19:13:26 72° S 19:16:01 55° ESE visible
07 Dec 10.3 21:07:27 10° W 21:13:26 31° W 21:13:26 31° W visible
08 Dec 9.5 18:26:20 10° W 18:40:13 73° S 18:45:06 37° ESE visible
08 Dec 9.8 20:33:40 10° W 20:42:32 46° WSW 20:42:32 46° WSW visible
09 Dec 9.7 17:52:33 10° WSW 18:06:54 73° S 18:14:13 24° E visible
09 Dec 9.3 19:59:53 10° W 20:11:39 61° SSW 20:11:39 61° SSW visible
09 Dec 11.2 22:07:37 10° W 22:09:05 14° W 22:09:05 14° W visible
10 Dec 9.8 17:18:49 10° WSW 17:33:31 72° S 17:43:22 14° E visible
10 Dec 9.2 19:26:03 10° W 19:39:09 65° SSW 19:40:47 59° SSE visible
10 Dec 10.7 21:33:43 10° W 21:38:13 22° W 21:38:13 22° W visible
11 Dec 10.0 16:45:08 10° WSW 17:00:06 71° S 17:11:36 10° E visible
11 Dec 9.5 18:52:14 10° W 19:05:59 69° SSW 19:09:58 44° SE visible
11 Dec 10.3 20:59:50 10° W 21:07:25 33° WSW 21:07:25 33° WSW visible
12 Dec 9.7 18:18:25 10° W 18:32:43 71° S 18:39:13 29° ESE visible
12 Dec 9.9 20:25:57 10° W 20:36:39 43° SW 20:36:39 43° SW visible
13 Dec 9.8 17:44:38 10° W 17:59:21 73° S 18:08:31 17° ESE visible
13 Dec 9.7 19:52:04 10° W 20:04:27 48° SSW 20:05:57 46° S visible
13 Dec 11.2 22:01:25 10° W 22:03:25 13° WSW 22:03:25 13° WSW visible
